GORIZONT 23 [-]

Last updated on Sun Jun 25 2023 00:02:57 GMT+0000 (Coordinated Universal Time)

1 21533U 91046A 23175.45808387 -.00000140 00000+0 00000+0 0 9999 2 21533 14.5457 349.3771 0002102 323.5975 56.9118 0.98908257109968
UTC large
Height (km)
Speed (km/s)
/
Latitude / Longitude
Inclination (degrees)
Orbital Period (minutes)
Azimuth
Elevation
Range (km)
Doppler Factor

Next 0 passes for location: London (51.5072 / 0.1276)

Sorry there are no passes over London.